Location: Rounton
(54.4000°N, 1.3500°W)
Time: 13:05:09
(UTC+00:00)

Transit 2A - Pass Details

Date: 05 December 2021
Orbit: 591 x 967 km, 66.7° (Epoch: 17 January)

Event Time Altitude Azimuth Distance (km) Brightness Sun altitude
Rises 04:58:38 0° 300° (WNW) 3,580 - -26.3°
Reaches altitude 10° 05:01:32 10° 312° (NW) 2,672 - -25.9°
Exits shadow 05:05:00 24° 342° (NNW) 1,864 7.8 -25.4°
Maximum altitude 05:06:55 28° 11° (N) 1,719 7.8 -25.1°
Drops below altitude 10° 05:12:22 10° 69° (ENE) 2,710 9.7 -24.3°
Sets 05:15:19 0° 81° (E) 3,638 10.8 -23.9°
